Eems Servant — PBTI — position and weather

sailwx.info

Track history (hours):
 
Tides and Currents Weather Stations Pressure Air Temp Water Temp Dewpoint Dewpoint Depression Visibility Wind Speed Wind Dir Waves Ship Positions

Eems Servant

Last reported at 2014-Oct-25 20:14 UTC. Time now 2014-Oct-26 04:25 UTC.
Position N 50°21' W 001°53'.

Length 87 m; draft 2.8 m.

Type: Cargo ship. MMSI: 246236000.

Date/timePositionNaut miles runAvg speedWind from/ knotsBaromVisibWave heightAir tempDewpointWater temp
2014-Oct-25 20:14N 50°21' W 001°53'5 7.8
2014-Oct-25 19:33N 50°24' W 001°60'7 7.4
2014-Oct-25 18:33N 50°28' W 002°09'6 6.4
2014-Oct-25 17:33N 50°32' W 002°17'5 0.2
2014-Oct-24 16:09N 50°32' W 002°24'16 7.9
2014-Oct-24 14:05N 50°20' W 002°41'4 7.8
2014-Oct-24 13:33N 50°17' W 002°46'19 8.0
2014-Oct-24 11:10N 50°03' W 003°06'5 8.6
2014-Oct-24 10:33N 49°59' W 003°12'147 8.2
2014-Oct-23 16:29N 47°52' W 005°05'136 9.0
2014-Oct-23 01:17N 46°32' W 002°22'6 8.8
2014-Oct-23 00:33N 46°28' W 002°14'9 8.7
2014-Oct-22 23:34N 46°23' W 002°04'9 8.6
2014-Oct-22 22:33N 46°17' W 001°55'9 8.7
2014-Oct-22 21:33N 46°12' W 001°45'  
2014-Oct-20 06:23N 46°05' W 001°15'0 0.0
2014-Oct-20 05:29N 46°05' W 001°15'0 0.0
2014-Oct-20 03:17N 46°05' W 001°15'0 0.0
2014-Oct-20 02:32N 46°05' W 001°15'0 0.0
2014-Oct-20 01:29N 46°05' W 001°15'0 0.0
2014-Oct-19 22:32N 46°05' W 001°15'0 0.0
2014-Oct-19 00:17N 46°05' W 001°15'0 0.0
2014-Oct-18 23:32N 46°05' W 001°15'0 0.0
2014-Oct-18 22:23N 46°05' W 001°15'0 0.0
2014-Oct-18 21:20N 46°05' W 001°15'0 0.0
2014-Oct-18 15:23N 46°05' W 001°15'3 0.1
2014-Oct-17 17:33N 46°06' W 001°20'9 9.3
2014-Oct-17 16:33N 46°06' W 001°33'9 9.1
2014-Oct-17 15:33N 46°04' W 001°46'9 9.2
2014-Oct-17 14:33N 46°03' W 001°60'169 4.0
2014-Oct-15 20:33N 43°20' W 003°02'  
Track history (hours):
 
Tides and Currents Weather Stations Pressure Air Temp Water Temp Dewpoint Dewpoint Depression Visibility Wind Speed Wind Dir Waves Ship Positions

Eems Servant

Last reported at 2014-Oct-25 20:14 UTC. Time now 2014-Oct-26 04:25 UTC.
Position N 50°21' W 001°53'.

Length 87 m; draft 2.8 m.

Type: Cargo ship. MMSI: 246236000.

Date/timePositionNaut miles runAvg speedWind from/ knotsBaromVisibWave heightAir tempDewpointWater temp
2014-Oct-25 20:14N 50°21' W 001°53'5 7.8
2014-Oct-25 19:33N 50°24' W 001°60'7 7.4
2014-Oct-25 18:33N 50°28' W 002°09'6 6.4
2014-Oct-25 17:33N 50°32' W 002°17'5 0.2
2014-Oct-24 16:09N 50°32' W 002°24'16 7.9
2014-Oct-24 14:05N 50°20' W 002°41'4 7.8
2014-Oct-24 13:33N 50°17' W 002°46'19 8.0
2014-Oct-24 11:10N 50°03' W 003°06'5 8.6
2014-Oct-24 10:33N 49°59' W 003°12'147 8.2
2014-Oct-23 16:29N 47°52' W 005°05'136 9.0
2014-Oct-23 01:17N 46°32' W 002°22'6 8.8
2014-Oct-23 00:33N 46°28' W 002°14'9 8.7
2014-Oct-22 23:34N 46°23' W 002°04'9 8.6
2014-Oct-22 22:33N 46°17' W 001°55'9 8.7
2014-Oct-22 21:33N 46°12' W 001°45'  
2014-Oct-20 06:23N 46°05' W 001°15'0 0.0
2014-Oct-20 05:29N 46°05' W 001°15'0 0.0
2014-Oct-20 03:17N 46°05' W 001°15'0 0.0
2014-Oct-20 02:32N 46°05' W 001°15'0 0.0
2014-Oct-20 01:29N 46°05' W 001°15'0 0.0
2014-Oct-19 22:32N 46°05' W 001°15'0 0.0
2014-Oct-19 00:17N 46°05' W 001°15'0 0.0
2014-Oct-18 23:32N 46°05' W 001°15'0 0.0
2014-Oct-18 22:23N 46°05' W 001°15'0 0.0
2014-Oct-18 21:20N 46°05' W 001°15'0 0.0
2014-Oct-18 15:23N 46°05' W 001°15'3 0.1
2014-Oct-17 17:33N 46°06' W 001°20'9 9.3
2014-Oct-17 16:33N 46°06' W 001°33'9 9.1
2014-Oct-17 15:33N 46°04' W 001°46'9 9.2
2014-Oct-17 14:33N 46°03' W 001°60'169 4.0
2014-Oct-15 20:33N 43°20' W 003°02'  

Dump ship's entire track history